Find Starlink 3046

NORAD ID: 49169 Int'l Des: 2021-082 Owner: SPXS Country: US Constellation: starlink operational
LEOCIRCULAR

リアルタイム位置

3D地球を読み込み中...

Starlink 3046について

説明を読み込み中...

次回通過

Passes for default location (London). Set your location on the main map for personalized predictions.

高度履歴

Loading altitude history...

軌道要素

1 49169U 21082AR 26122.10923594 -.00008180 00000-0 -67965-3 0 9993
2 49169 69.9999 139.7773 0004379 277.1820 82.8842 14.98265136254478
Epoch: May 2, 2026 • Age: 7 hours

現在のステータス

高度 579.6 km
速度 7.57 km/s
衛星直下点 41.56°N, 159.05°E
打ち上げ日 Sep 14, 2021
運用期間 4.6 years
タイプ internet

技術仕様

分類 Payload
質量 297.00 kg
乾燥質量 275.00 kg
総質量 297.00 kg
長さ 0.20 m
直径 2.80 m
スパン 9.00 m
形状 Box + pan
製造者 SPXS
バスタイプ Starlink
フェーズステータス In Orbit
所有者/国 SPXS/US

Most Searched